Flag for Canada Weather past 2 weeks in Markham, Ontario, Canada

Now
43 °F

Clear.


Feels Like: 38 °F
Forecast: 39 / 59 °F
Wind: 8 mph from North

Location: Toronto Buttonville

Current Time: Oct 23, 2014 at 5:30:40 AM

Latest Report: Oct 23, 2014 at 4:00 AM


Visibility: 15 mi

Pressure: 30.20 "Hg

Humidity: 87%

Dew point: 39 °F

Location of MarkhamLocation

Historic Weather in Markham — Graph

°F

Markham temperature yesterday

Maximum temperature yesterday: 55 °F (at 2:00 PM)
Minimum temperature yesterday: 37 °F (at 7:00 AM)
Average temperature yesterday: 46 °F

Past Weeks' High & Low Weather Summary

 TemperatureHumidityPressure
High73 °F (Oct 14, 4:00 PM)100% (Oct 11, 1:00 AM)30.31 "Hg (Oct 11, 1:00 AM)
Low32 °F (Oct 12, 6:00 AM)41% (Oct 13, 7:00 PM)29.48 "Hg (Oct 18, 12:00 AM)
Average50 °F81%29.94 "Hg
* Reported Oct 8 4:00 AM — Oct 23 4:00 AM, Markham, Weather by CustomWeather, © 2014

Note: Actual official high and low records may vary slightly from our data, if they occured in-between our weather recording intervals... More about our weather records

Advertising

Markham weather history for previous 24 hours

 ConditionsComfort  
Time TempWeatherWind HumidityBarometerVisibility
4:00 AM
Oct 23
43 °FClear.8 mph87%30.20 "Hg15 mi
3:00 AM45 °FClear.8 mph81%30.20 "Hg15 mi
2:00 AM46 °FClear.7 mph76%30.21 "Hg15 mi
1:00 AM45 °FClear.3 mph87%30.22 "Hg15 mi
12:00 AM45 °FPassing clouds.5 mph87%30.24 "Hg15 mi
11:00 PM
Oct 22
48 °FPassing clouds.5 mph82%30.25 "Hg15 mi
10:00 PM48 °FPassing clouds.7 mph76%30.27 "Hg15 mi
9:00 PM48 °FPassing clouds.7 mph76%30.26 "Hg15 mi
8:00 PM48 °FPassing clouds.8 mph76%30.24 "Hg15 mi
7:00 PM50 °FPassing clouds.8 mph67%30.24 "Hg15 mi
6:00 PM54 °FPassing clouds.8 mph58%30.24 "Hg15 mi
5:00 PM55 °FPassing clouds.12 mph55%30.24 "Hg15 mi
4:00 PM55 °FScattered clouds.7 mph59%30.24 "Hg15 mi
3:00 PM55 °FScattered clouds.8 mph59%30.24 "Hg15 mi
2:00 PM55 °FScattered clouds.13 mph59%30.25 "Hg15 mi
1:00 PM52 °FPassing clouds.10 mph62%30.27 "Hg15 mi
12:00 PM50 °FPassing clouds.10 mph67%30.29 "Hg15 mi
11:00 AM46 °FPassing clouds.7 mph71%30.29 "Hg15 mi
10:00 AM43 °FPartly sunny.8 mph71%30.29 "Hg15 mi
9:00 AM39 °FPassing clouds.8 mph81%30.28 "Hg15 mi
8:00 AM39 °FPassing clouds.7 mph81%30.27 "Hg15 mi
7:00 AM37 °FPassing clouds.7 mph87%30.25 "Hg15 mi
6:00 AM39 °FPassing clouds.7 mph81%30.23 "Hg15 mi
5:00 AM39 °FPassing clouds.8 mph81%30.23 "Hg15 mi
Weather by CustomWeather, © 2014

See weather overviewHow to use our weather pages